EW8836 Weather Reports


Display with metric or nautical units.
time (UTC)temp
F
wind
direction
speed
MPH
gust
MPH
rain 1hr
in
rain 24hr
in
rain mn
in
humidity
%
barometer
mb
20260904101556 87 232 1.0 4.0 0.00 0.00 0.00 41 1018.5
20260904100046 86 49 0.0 4.0 0.00 0.00 0.00 40 1019.0
20260904094554 86 27 0.0 5.0 0.00 0.00 0.00 40 1019.1
20260904093059 85 252 1.0 3.0 0.00 0.00 0.00 45 1019.1
20260904090103 82 239 1.0 5.0 0.00 0.00 0.00 51 1019.1
20260904084552 80 238 0.0 4.0 0.00 0.00 0.00 54 1019.2
20260904083056 78 233 0.0 4.0 0.00 0.00 0.00 59 1019.1
20260904081547 75 235 0.0 4.0 0.00 0.00 0.00 62 1019.2
20260904080055 72 131 1.0 4.0 0.00 0.00 0.00 67 1019.1
20260904074544 70 255 0.0 4.0 0.00 0.00 0.00 70 1019.2
20260904073104 68 213 0.0 4.0 0.00 0.00 0.00 74 1019.2
20260904071549 65 229 0.0 8.0 0.00 0.00 0.00 77 1019.1
20260904070056 62 263 1.0 6.0 0.00 0.00 0.00 82 1019.1
20260904064605 59 231 0.0 5.0 0.00 0.00 0.00 85 1019.1
20260904063054 59 236 0.0 5.0 0.00 0.00 0.00 86 1019.1
20260904061605 58 249 0.0 6.0 0.00 0.00 0.00 88 1019.1
20260904060052 57 244 0.0 4.0 0.00 0.00 0.00 89 1018.9
20260904054551 56 227 0.0 3.0 0.00 0.00 0.00 91 1019.1
20260904053126 55 146 0.0 1.0 0.00 0.00 0.00 91 1019.1
20260904051551 55 145 0.0 3.0 0.00 0.00 0.00 91 1018.9
20260904050104 55 40 0.0 3.0 0.00 0.00 0.00 92 1019.0
20260904044556 55 343 0.0 2.0 0.00 0.00 0.00 92 1019.0
20260904043053 55 17 0.0 1.0 0.00 0.00 0.00 92 1019.0
20260904041603 55 278 0.0 1.0 0.00 0.00 0.00 91 1019.1
20260904040046 55 186 0.0 1.0 0.00 0.00 0.00 91 1019.3
20260904034543 56 245 0.0 3.0 0.00 0.00 0.00 91 1019.4
20260904033102 56 256 0.0 1.0 0.00 0.00 0.00 91 1019.6
20260904031602 56 228 0.0 1.0 0.00 0.00 0.00 91 1019.7
20260904030100 56 236 0.0 3.0 0.00 0.00 0.00 91 1019.8
20260904024545 56 298 0.0 1.0 0.00 0.00 0.00 91 1019.9
20260904023100 56 252 0.0 3.0 0.00 0.00 0.00 90 1020.1
20260904021555 56 223 0.0 2.0 0.00 0.00 0.00 90 1020.3
20260904020133 57 233 0.0 3.0 0.00 0.00 0.00 89 1020.3
20260904014649 57 255 0.0 3.0 0.00 0.00 0.00 89 1020.5
20260904013101 57 248 0.0 1.0 0.00 0.00 0.00 88 1020.6
20260904011602 58 214 0.0 2.0 0.00 0.00 0.00 88 1020.8
20260904010055 58 240 0.0 1.0 0.00 0.00 0.00 87 1021.0
20260904004601 58 228 0.0 2.0 0.00 0.00 0.00 87 1021.3
20260904003106 58 239 0.0 1.0 0.00 0.00 0.00 86 1021.4
20260904001543 58 263 0.0 1.0 0.00 0.00 0.00 86 1021.6
20260903234613 59 251 0.0 1.0 0.00 0.00 0.00 85 1021.7
20260903233049 60 219 0.0 1.0 0.00 0.00 0.00 84 1021.8
20260903231551 60 205 0.0 2.0 0.00 0.00 0.00 82 1021.7
20260903230108 61 234 0.0 1.0 0.00 0.00 0.00 81 1021.7
20260903224605 61 193 0.0 1.0 0.00 0.00 0.00 80 1021.7
20260903223102 61 247 0.0 0.0 0.00 0.00 0.00 79 1021.9
20260903221554 62 247 0.0 1.0 0.00 0.00 0.00 78 1021.9
20260903220002 62 243 0.0 2.0 0.00 0.00 0.00 78 1022.0
20260903214547 63 253 0.0 0.0 0.00 0.00 0.00 77 1022.1
20260903213058 63 295 0.0 0.0 0.00 0.00 0.00 75 1022.1
20260903211550 64 296 0.0 0.0 0.00 0.00 0.00 74 1022.1
20260903210052 65 294 0.0 0.0 0.00 0.00 0.00 72 1022.2
20260903204604 66 268 0.0 1.0 0.00 0.00 0.00 70 1022.3
20260903203049 67 360 0.0 1.0 0.00 0.00 0.00 68 1022.4
20260903201554 68 44 0.0 0.0 0.00 0.00 0.00 66 1022.4
20260903200048 69 46 0.0 1.0 0.00 0.00 0.00 64 1022.3
20260903194548 71 46 0.0 0.0 0.00 0.00 0.00 61 1022.3
20260903193051 72 46 0.0 1.0 0.00 0.00 0.00 59 1022.3
20260903191549 74 46 0.0 0.0 0.00 0.00 0.00 57 1022.2
20260903190105 74 45 0.0 0.0 0.00 0.00 0.00 56 1022.1
20260903184544 75 45 0.0 0.0 0.00 0.00 0.00 55 1022.1
20260903183105 77 45 0.0 0.0 0.00 0.00 0.00 52 1021.9
20260903181605 80 45 0.0 1.0 0.00 0.00 0.00 48 1021.8
20260903180112 82 46 0.0 1.0 0.00 0.00 0.00 46 1021.6
20260903174545 84 16 0.0 1.0 0.00 0.00 0.00 43 1021.7
20260903173104 86 71 0.0 1.0 0.00 0.00 0.00 38 1021.7
20260903171548 85 270 1.0 3.0 0.00 0.00 0.00 37 1021.8
20260903170211 87 329 0.0 2.0 0.00 0.00 0.00 38 1021.9
20260903164552 87 212 0.0 2.0 0.00 0.00 0.00 38 1021.9
20260903163057 87 1 0.0 1.0 0.00 0.00 0.00 37 1021.9
20260903161603 86 264 1.0 4.0 0.00 0.00 0.00 34 1021.9
20260903160052 86 240 0.0 3.0 0.00 0.00 0.00 36 1022.0
20260903154555 86 261 1.0 4.0 0.00 0.00 0.00 34 1022.0
20260903153049 86 285 0.0 5.0 0.00 0.00 0.00 35 1022.1
20260903151600 86 260 1.0 4.0 0.00 0.00 0.00 35 1022.1
20260903150105 86 80 2.0 7.0 0.00 0.00 0.00 35 1022.1
20260903144602 86 56 0.0 8.0 0.00 0.00 0.00 36 1022.4
20260903143057 86 227 2.0 6.0 0.00 0.00 0.00 37 1022.3
20260903141549 85 266 0.0 5.0 0.00 0.00 0.00 38 1022.3
20260903140054 86 245 1.0 5.0 0.00 0.00 0.00 39 1022.3
20260903134551 85 346 0.0 4.0 0.00 0.00 0.00 41 1022.4
20260903133056 85 59 1.0 5.0 0.00 0.00 0.00 43 1022.4
20260903131604 84 87 0.0 4.0 0.00 0.00 0.00 43 1022.4
20260903130008 85 50 0.0 4.0 0.00 0.00 0.00 42 1022.7
20260903124603 84 304 1.0 4.0 0.00 0.00 0.00 43 1022.7
20260903123057 84 247 0.0 6.0 0.00 0.00 0.00 44 1022.7
20260903121554 82 282 2.0 6.0 0.00 0.00 0.00 45 1022.7
20260903120059 83 215 2.0 6.0 0.00 0.00 0.00 47 1023.0
20260903114601 82 230 0.0 6.0 0.00 0.00 0.00 47 1023.0
20260903113055 81 149 1.0 3.0 0.00 0.00 0.00 48 1023.1
20260903111605 81 241 1.0 5.0 0.00 0.00 0.00 49 1023.2
20260903104606 79 300 0.0 3.0 0.00 0.00 0.00 50 1023.5
20260903103052 78 203 0.0 5.0 0.00 0.00 0.00 52 1023.7